Flag for Morocco Weather past 2 weeks in Marrakech, Morocco

64 °F

Broken clouds.

Feels Like: 64 °F
Forecast: 57 / 78 °F
Wind: 7 mph from Southwest

Location: Marrakech Airport

Current Time: Oct 13, 2015 at 8:47:44 AM

Latest Report: Oct 13, 2015 at 8:00 AM

Visibility: N/A

Pressure: 29.98 "Hg

Humidity: 94%

Dew point: 63 °F

Location of MarrakechLocation

Historic Weather in Marrakech — Graph


Marrakech temperature yesterday

Maximum temperature yesterday: 75 °F (at 2:00 PM)
Minimum temperature yesterday: 68 °F (at 12:00 AM)
Average temperature yesterday: 70 °F

Past Weeks' High & Low Weather Summary

High100 °F (Oct 5, 3:00 PM)100% (Sep 28, 11:00 PM)30.30 "Hg (Sep 28, 11:00 PM)
Low57 °F (Oct 10, 6:30 AM)18% (Oct 4, 4:00 PM)29.86 "Hg (Oct 9, 4:30 PM)
Average75 °F63%30.03 "Hg
* Reported Sep 28 8:00 AM — Oct 13 8:00 AM, Marrakech, Weather by CustomWeather, © 2015

Note: Actual official high and low records may vary slightly from our data, if they occured in-between our weather recording intervals... More about our weather records


Marrakech weather history for previous 24 hours

Time TempWeatherWind HumidityBarometerVisibility
8:00 AM
Tue, Oct 13
64 °FBroken clouds.7 mph94%29.98 "HgN/A
7:30 AM64 °FBroken clouds.5 mph94%29.98 "HgN/A
7:00 AM64 °FBroken clouds.5 mph94%29.98 "HgN/A
6:30 AM66 °FPartly cloudy.6 mph88%29.98 "HgN/A
6:00 AM64 °FPartly cloudy.5 mph94%29.95 "HgN/A
5:30 AM64 °FPartly cloudy.5 mph88%29.95 "HgN/A
5:00 AM64 °FPartly cloudy.6 mph94%29.98 "HgN/A
4:30 AM64 °FPartly cloudy.5 mph88%29.98 "HgN/A
4:00 AM64 °FPartly cloudy.3 mph94%29.98 "HgN/A
3:30 AM64 °FPartly cloudy.No wind94%29.98 "HgN/A
3:00 AM64 °FPartly cloudy.3 mph100%29.98 "HgN/A
2:30 AM64 °FPartly cloudy.2 mph94%29.98 "HgN/A
2:00 AM64 °FRain showers. Partly cloudy.5 mph94%29.98 "Hg4 mi
1:00 AM66 °FLight rain. Passing clouds.10 mph83%29.98 "HgN/A
12:30 AM68 °FPassing clouds.8 mph78%30.01 "HgN/A
12:00 AM68 °FPassing clouds.7 mph83%30.01 "HgN/A
11:30 PM
Mon, Oct 12
68 °FPassing clouds.8 mph83%30.01 "HgN/A
11:00 PM68 °FPassing clouds.7 mph78%30.01 "HgN/A
10:30 PM68 °FPassing clouds.7 mph78%30.01 "HgN/A
10:00 PM68 °FPassing clouds.8 mph78%30.01 "HgN/A
9:30 PM70 °FPassing clouds.9 mph78%30.01 "HgN/A
9:00 PM70 °FPassing clouds.9 mph73%29.98 "HgN/A
8:30 PM70 °FPassing clouds.8 mph73%29.98 "HgN/A
8:00 PM72 °FPassing clouds.10 mph69%29.98 "HgN/A
7:30 PM72 °FPassing clouds.10 mph69%29.95 "HgN/A
7:00 PM73 °FPassing clouds.7 mph65%29.95 "HgN/A
6:30 PM73 °FPassing clouds.8 mph65%29.95 "HgN/A
6:00 PM73 °FPartly sunny.10 mph65%29.95 "HgN/A
5:30 PM75 °FPartly sunny.8 mph61%29.95 "HgN/A
5:00 PM75 °FPartly sunny.9 mph65%29.95 "HgN/A
4:30 PM75 °FPartly sunny.10 mph65%29.95 "HgN/A
4:00 PM75 °FPartly sunny.7 mph65%29.92 "HgN/A
3:30 PM75 °FPartly sunny.9 mph65%29.92 "HgN/A
3:00 PM73 °FPartly sunny.12 mph69%29.95 "HgN/A
2:30 PM75 °FPartly sunny.10 mph65%29.95 "HgN/A
2:00 PM75 °FPartly sunny.8 mph65%29.95 "HgN/A
1:30 PM73 °FPartly sunny.8 mph74%29.95 "HgN/A
1:00 PM73 °FBroken clouds.7 mph69%29.98 "HgN/A
12:30 PM72 °FBroken clouds.8 mph73%29.98 "HgN/A
12:00 PM72 °FBroken clouds.3 mph73%29.98 "HgN/A
11:30 AM72 °FBroken clouds.6 mph69%29.98 "HgN/A
11:00 AM72 °FBroken clouds.3 mph69%29.98 "HgN/A
10:30 AM72 °FBroken clouds.3 mph73%29.98 "HgN/A
10:00 AM72 °FBroken clouds.2 mph73%29.98 "HgN/A
9:30 AM70 °FBroken clouds.3 mph78%29.98 "HgN/A
9:00 AM68 °FBroken clouds.2 mph83%29.95 "HgN/A
8:30 AM68 °FPartly sunny.3 mph88%29.95 "HgN/A
8:00 AM68 °FPartly sunny.3 mph88%29.95 "HgN/A
Weather by CustomWeather, © 2015

See weather overviewHow to use our weather pages